Terminal Aerodrome Forecast
Issued by NWS Lake Charles, LA

Home | Current Version | Previous Version | Text Only | Print | Product List | Glossary On
Versions: 1 2 3 4 5 6 7 8 9 10 11 12 13 14 15 16 17 18
000
FTUS44 KLCH 020520
TAFLCH
TAF
KLCH 020520Z 0206/0306 VRB03KT P6SM SCT120 SCT250
     FM021400 20008KT P6SM SCT025
     FM021800 21010KT P6SM SCT040=

USA.gov is the U.S. government's official web portal to all federal, state and local government web resources and services.